FENGYUN 1C DEB, 32095

Orbit data source: Space-Track

FENGYUN 1C DEB, 32095 is space debris in SSO originally from a launch on Mon, 10 May 1999 UTC launched from the Taiyaun Space Center, China (TSC). Fengyun 1C debris stems from the Chinese weather satellite Fengyun-1C, which was intentionally destroyed by a Chinese anti-satellite missile in 2007. This event dramatically increased the amount of space debris, with thousands of trackable fragments posing hazards to satellites and human spaceflight. The Fengyun 1C debris cloud has become a focal point in discussions about space sustainability and the need for international regulations to prevent the creation of new debris.

Loading next visibility...
Identifier
32095, 1999-025CQM
Orbit
SSO
Country
Flag of CNCN / PRC
Related business
Manufacturer
Unknown
Mission
Spacecraft
Bus & Motor
Unknown
Mass
Unknown
Launch date (UTC)
1999-05-10 (27 years ago)
Launch vehicle
Unknown
Launch site
Taiyaun Space Center, China (TSC)
Object type
Payload
Rocket body
Debris
Shape & HBR
Unknown shape, 0.1 m
Radar Cross Section
Small (<0.1 m²)

Expand to show TLE details & history
Last TLE update: 6 days ago

TLE from 6 days ago
0 FENGYUN 1C DEB
1 32095U 99025CQM 26140.78123941  .00000273  00000-0  15491-3 0  9997
2 32095  98.6316 156.6424 0077754 356.8564   3.2112 14.16232322970684
Epoch: 2026-05-20T18:44Z
TLE epoch observation values (Epoch: 2026-05-20T18:44:59.085Z)
Latitude
-0°
Longitude
-3.03966°
Altitude
785.004 km
Speed
7.49 km/s
True Right ascension
10h 26m 34s
True Declination
0° 00' 00"
Sunlit
Object was in daylight at epoch
Visualization orbit readout
Latitude
Unknown
Longitude
Unknown
Altitude
Unknown
Speed
Unknown
Apparent Right ascension
Unknown
Apparent Declination
Unknown
Sunlit
N/A
Visualization observer readout
Local Sidereal Time
23:15:58
Azimuth
Unknown
Elevation
Unknown
Doppler factor
Unknown
Orbital elements
Apogee altitude
891.37 km
Perigee altitude
779.195 km
Semi-major axis
7,213.42 km
Eccentricity
0.00778
Inclination
98.6316°
RAAN
156.6424°
Arg. of periapsis
356.8564°
True anomaly
3.2616°
Mean anomaly
3.2112°
Eccentric anomaly
3.23635°
Mean motion
3.54268 °/min
Orbital period
101.62 mins
BSTAR
0.00015491
Loading maneuver chart data...
Computing Atmospheric mass density...

Documentation

Showing up to 5 results
|